When you browse on this site, cookies collect data to enhance your experience and personalize the content and advertising you see.
Visit our Privacy Policy to learn more. By continuing to use the site, you agree to this use of cookies and data.
  • In Netherlands
  • List of Countries
  • For 7 days
  • Water Temperature
  • Weather Map
  • Weather Widgets
  • user-avatar
    Login

    Hourly Weather Tervuren

    Today, 29 March, Sunday

    Time Temperature Precipitation Wind Pressure Humidity
    00:00 +2°C° 0 mm 6 mps 763 mmHg 71%
    01:00 +2°C° 0 mm 6 mps 763 mmHg 68%
    02:00 +2°C° 0 mm 6 mps 763 mmHg 65%
    03:00 +2°C° 0 mm 6 mps 763 mmHg 61%
    04:00 +1°C° 0 mm 6 mps 763 mmHg 66%
    05:00 +1°C° 0 mm 6 mps 762 mmHg 70%
    06:00 +1°C° 0 mm 5 mps 763 mmHg 73%
    07:00 +2°C° 0 mm 6 mps 763 mmHg 65%
    08:00 +2°C° 0 mm 8 mps 763 mmHg 58%
    09:00 +3°C° 0 mm 10 mps 764 mmHg 50%
    10:00 +3°C° 0 mm 10 mps 764 mmHg 47%
    11:00 +5°C° 0 mm 10 mps 764 mmHg 44%
    12:00 +5°C° 0 mm 10 mps 764 mmHg 44%
    13:00 +5°C° 0 mm 10 mps 764 mmHg 46%
    14:00 +3°C° 0 mm 10 mps 764 mmHg 47%
    15:00 +3°C° 0 mm 9 mps 764 mmHg 49%
    16:00 +2°C° 0 mm 9 mps 764 mmHg 49%
    17:00 +1°C° 0 mm 8 mps 765 mmHg 48%
    18:00 +1°C° 0 mm 8 mps 766 mmHg 47%
    19:00 0°C° 0 mm 7 mps 766 mmHg 47%
    20:00 -1°C° 0 mm 7 mps 766 mmHg 46%
    21:00 -2°C° 0 mm 7 mps 767 mmHg 46%
    22:00 -3°C° 0 mm 6 mps 767 mmHg 48%
    23:00 -3°C° 0 mm 6 mps 767 mmHg 50%

    Tomorrow, 30 March, Monday

    Time Temperature Precipitation Wind Pressure Humidity
    00:00 -4°C° 0 mm 5 mps 767 mmHg 52%
    01:00 -4°C° 0 mm 5 mps 767 mmHg 55%
    02:00 -3°C° 0 mm 4 mps 767 mmHg 57%
    03:00 -4°C° 0 mm 4 mps 767 mmHg 60%
    04:00 -4°C° 0 mm 3 mps 767 mmHg 61%
    05:00 -4°C° 0 mm 3 mps 767 mmHg 61%
    06:00 -4°C° 0 mm 3 mps 767 mmHg 62%
    07:00 -1°C° 0 mm 3 mps 766 mmHg 56%
    08:00 +1°C° 0 mm 3 mps 766 mmHg 51%
    09:00 +3°C° 0 mm 4 mps 766 mmHg 45%
    10:00 +4°C° 0 mm 4 mps 765 mmHg 45%
    11:00 +5°C° 0 mm 4 mps 765 mmHg 44%
    12:00 +6°C° 0 mm 4 mps 765 mmHg 44%
    13:00 +6°C° 0 mm 4 mps 764 mmHg 47%
    14:00 +7°C° 0 mm 4 mps 764 mmHg 51%
    15:00 +7°C° 0 mm 5 mps 763 mmHg 54%
    16:00 +6°C° 0 mm 4 mps 763 mmHg 62%
    17:00 +5°C° 0 mm 3 mps 763 mmHg 69%
    18:00 +4°C° 0 mm 3 mps 762 mmHg 77%
    19:00 +3°C° 0 mm 3 mps 763 mmHg 80%
    20:00 +2°C° 0 mm 3 mps 763 mmHg 84%
    21:00 +2°C° 0 mm 3 mps 763 mmHg 88%
    22:00 +1°C° 0 mm 3 mps 763 mmHg 89%
    23:00 +1°C° 0 mm 3 mps 764 mmHg 90%

    Day after tomorrow, 31 March, Tuesday

    Time Temperature Precipitation Wind Pressure Humidity
    00:00 0°C° 0 mm 3 mps 764 mmHg 92%
    01:00 0°C° 0 mm 3 mps 764 mmHg 88%
    02:00 -2°C° 0 mm 4 mps 764 mmHg 84%
    03:00 -2°C° 0 mm 4 mps 764 mmHg 80%
    04:00 -3°C° 0 mm 4 mps 764 mmHg 78%
    05:00 -3°C° 0 mm 4 mps 765 mmHg 76%
    06:00 -4°C° 0 mm 4 mps 765 mmHg 75%
    07:00 -2°C° 0 mm 4 mps 765 mmHg 68%
    08:00 0°C° 0 mm 5 mps 765 mmHg 61%
    09:00 +2°C° 0 mm 5 mps 765 mmHg 55%
    10:00 +3°C° 0 mm 5 mps 765 mmHg 50%
    11:00 +5°C° 0 mm 5 mps 765 mmHg 45%
    12:00 +7°C° 0 mm 5 mps 765 mmHg 40%
    13:00 +7°C° 0 mm 5 mps 765 mmHg 39%
    14:00 +7°C° 0 mm 4 mps 764 mmHg 39%
    15:00 +7°C° 0 mm 4 mps 764 mmHg 38%
    16:00 +6°C° 0 mm 4 mps 764 mmHg 42%
    17:00 +5°C° 0 mm 3 mps 763 mmHg 47%
    18:00 +3°C° 0 mm 3 mps 763 mmHg 51%
    19:00 +3°C° 0 mm 3 mps 763 mmHg 52%
    20:00 +3°C° 0 mm 2 mps 763 mmHg 52%
    21:00 +2°C° 0 mm 2 mps 763 mmHg 53%
    22:00 +1°C° 0 mm 2 mps 763 mmHg 55%
    23:00 +1°C° 0 mm 2 mps 763 mmHg 58%

    1 April, Wednesday

    Time Temperature Precipitation Wind Pressure Humidity
    00:00 -1°C° 0 mm 2 mps 763 mmHg 60%
    01:00 +1°C° 0 mm 1 mps 762 mmHg 62%
    02:00 +1°C° 0 mm 1 mps 762 mmHg 65%
    03:00 0°C° 0 mm 1 mps 761 mmHg 67%
    04:00 0°C° 0 mm 1 mps 761 mmHg 66%
    05:00 +1°C° 0 mm 1 mps 761 mmHg 66%
    06:00 0°C° 0 mm 0 mps 761 mmHg 65%
    07:00 +3°C° 0 mm 1 mps 761 mmHg 60%
    08:00 +5°C° 0 mm 1 mps 760 mmHg 55%
    09:00 +7°C° 0 mm 1 mps 760 mmHg 50%
    10:00 +8°C° 0 mm 1 mps 760 mmHg 48%
    11:00 +9°C° 0 mm 1 mps 759 mmHg 47%
    12:00 +9°C° 0 mm 2 mps 759 mmHg 46%
    13:00 +9°C° 0 mm 2 mps 758 mmHg 49%
    14:00 +9°C° 0 mm 2 mps 758 mmHg 51%
    15:00 +9°C° 0 mm 3 mps 757 mmHg 54%
    16:00 +7°C° 0 mm 3 mps 757 mmHg 59%
    17:00 +6°C° 0 mm 2 mps 757 mmHg 65%
    18:00 +5°C° 0 mm 2 mps 756 mmHg 70%
    19:00 +4°C° 0 mm 2 mps 757 mmHg 73%
    20:00 +3°C° 0 mm 2 mps 757 mmHg 75%
    21:00 +3°C° 0 mm 1 mps 757 mmHg 77%
    22:00 +3°C° 0 mm 1 mps 756 mmHg 79%
    23:00 +3°C° 0 mm 1 mps 756 mmHg 81%

    2 April, Thursday

    Time Temperature Precipitation Wind Pressure Humidity
    00:00 +2°C° 0 mm 1 mps 756 mmHg 83%
    01:00 +2°C° 0 mm 1 mps 756 mmHg 83%
    02:00 +2°C° 0 mm 1 mps 755 mmHg 83%
    03:00 +1°C° 0 mm 2 mps 755 mmHg 82%
    04:00 +1°C° 0 mm 2 mps 755 mmHg 81%
    05:00 +2°C° 0 mm 2 mps 755 mmHg 80%
    06:00 +2°C° 0 mm 2 mps 755 mmHg 79%
    07:00 +3°C° 0 mm 3 mps 755 mmHg 74%
    08:00 +5°C° 0 mm 3 mps 754 mmHg 70%
    09:00 +7°C° 0 mm 3 mps 754 mmHg 65%
    10:00 +8°C° 0 mm 3 mps 754 mmHg 63%
    11:00 +9°C° 0 mm 3 mps 754 mmHg 61%
    12:00 +9°C° 0 mm 3 mps 753 mmHg 60%
    13:00 +9°C° 0 mm 3 mps 753 mmHg 61%
    14:00 +9°C° 0 mm 3 mps 753 mmHg 62%
    15:00 +9°C° 0 mm 3 mps 752 mmHg 64%
    16:00 +9°C° 0.1 mm 3 mps 752 mmHg 67%
    17:00 +8°C° 0.1 mm 3 mps 752 mmHg 71%
    18:00 +8°C° 0.1 mm 3 mps 752 mmHg 75%
    19:00 +7°C° 0 mm 3 mps 752 mmHg 78%
    20:00 +7°C° 0 mm 3 mps 752 mmHg 81%
    21:00 +5°C° 0 mm 4 mps 752 mmHg 84%
    22:00 +5°C° 0 mm 4 mps 752 mmHg 86%
    23:00 +4°C° 0 mm 4 mps 751 mmHg 89%

    3 April, Friday

    Time Temperature Precipitation Wind Pressure Humidity
    00:00 +3°C° 0 mm 5 mps 751 mmHg 91%
    01:00 +4°C° 0.1 mm 4 mps 751 mmHg 91%
    02:00 +4°C° 0.1 mm 4 mps 751 mmHg 91%
    03:00 +5°C° 0.1 mm 4 mps 751 mmHg 91%
    04:00 +4°C° 0 mm 4 mps 752 mmHg 91%
    05:00 +4°C° 0 mm 3 mps 752 mmHg 91%
    06:00 +3°C° 0 mm 3 mps 753 mmHg 91%
    07:00 +4°C° 0 mm 3 mps 753 mmHg 85%
    08:00 +5°C° 0 mm 4 mps 754 mmHg 78%
    09:00 +6°C° 0 mm 4 mps 754 mmHg 71%
    10:00 +7°C° 0.1 mm 4 mps 755 mmHg 67%
    11:00 +7°C° 0.1 mm 4 mps 755 mmHg 63%
    12:00 +8°C° 0.1 mm 4 mps 755 mmHg 59%
    13:00 +8°C° 0 mm 4 mps 756 mmHg 56%
    14:00 +8°C° 0 mm 4 mps 756 mmHg 54%
    15:00 +8°C° 0 mm 4 mps 756 mmHg 52%
    16:00 +7°C° 0 mm 4 mps 757 mmHg 55%
    17:00 +5°C° 0 mm 3 mps 757 mmHg 58%
    18:00 +4°C° 0 mm 3 mps 757 mmHg 61%
    19:00 +3°C° 0 mm 3 mps 758 mmHg 63%
    20:00 +3°C° 0 mm 2 mps 758 mmHg 65%
    21:00 +2°C° 0 mm 2 mps 759 mmHg 67%
    22:00 +2°C° 0 mm 2 mps 759 mmHg 68%
    23:00 +1°C° 0 mm 2 mps 760 mmHg 69%
    Show more